time, Switch, Flow(0), Analog(2)
yyyy/mm/dd HH:MM:SS.fff, True=FILTERED|False=TOTAL, L/min, V
2023/07/04 16:00:03.480, True, 4.641, 0.140383
2023/07/04 16:00:03.976, True, 4.044, 0.142519
2023/07/04 16:00:04.480, True, 2.652, 0.138094
2023/07/04 16:00:04.984, True, 1.328, 0.139010
2023/07/04 16:00:05.480, True, 1.346, 0.140612
2023/07/04 16:00:05.984, True, 0.996, 0.141375
2023/07/04 16:00:06.488, True, 0.994, 0.140764
2023/07/04 16:00:06.984, True, 1.011, 0.140230
2023/07/04 16:00:07.488, True, 0.995, 0.139467
2023/07/04 16:00:07.992, True, 0.995, 0.142061
2023/07/04 16:00:08.488, True, 1.011, 0.139315
2023/07/04 16:00:08.992, True, 0.995, 0.141146
2023/07/04 16:00:09.496, True, 0.995, 0.143435
2023/07/04 16:00:09.992, True, 1.012, 0.140612
2023/07/04 16:00:10.496, True, 0.994, 0.141985
2023/07/04 16:00:10.000, True, 0.995, 0.140078
2023/07/04 16:00:11.496, True, 1.011, 0.140612
2023/07/04 16:00:11.000, True, 0.995, 0.141985
2023/07/04 16:00:12.504, True, 0.994, 0.140536
2023/07/04 16:00:12.999, True, 1.011, 0.138857
2023/07/04 16:00:13.504, True, 0.994, 0.140230
2023/07/04 16:00:14.008, True, 0.995, 0.140993
2023/07/04 16:00:14.503, True, 1.011, 0.141146
2023/07/04 16:00:15.008, True, 0.997, 0.140002
2023/07/04 16:00:15.512, True, 0.993, 0.141527
2023/07/04 16:00:16.016, True, 1.327, 0.140383
2023/07/04 16:00:16.512, True, 1.011, 0.139162
2023/07/04 16:00:17.016, True, 0.995, 0.142367
2023/07/04 16:00:17.520, True, 0.995, 0.139925
2023/07/04 16:00:18.016, True, 1.011, 0.140307
2023/07/04 16:00:18.519, True, 0.994, 0.140764
2023/07/04 16:00:19.024, True, 0.996, 0.142290
2023/07/04 16:00:19.519, True, 1.012, 0.139544
2023/07/04 16:00:20.023, True, 0.993, 0.138018
2023/07/04 16:00:20.528, True, 0.996, 0.141833
2023/07/04 16:00:21.023, True, 1.011, 0.139849
2023/07/04 16:00:21.527, True, 0.994, 0.143130
2023/07/04 16:00:22.032, True, 0.996, 0.140230
2023/07/04 16:00:22.528, True, 1.010, 0.141299
2023/07/04 16:00:23.031, True, 0.995, 0.142977
2023/07/04 16:00:23.536, True, 0.996, 0.140154
2023/07/04 16:00:24.031, True, 1.011, 0.140383
2023/07/04 16:00:24.536, True, 0.993, 0.141680
2023/07/04 16:00:25.040, True, 0.995, 0.139467
2023/07/04 16:00:25.536, True, 1.013, 0.141299
2023/07/04 16:00:26.039, True, 0.993, 0.141299
2023/07/04 16:00:26.544, True, 0.995, 0.140841
2023/07/04 16:00:27.040, True, 1.011, 0.139162
2023/07/04 16:00:27.544, True, 0.995, 0.141146
2023/07/04 16:00:28.047, True, 0.995, 0.139696
2023/07/04 16:00:28.544, True, 1.013, 0.141527
2023/07/04 16:00:29.048, True, 0.993, 0.142748
2023/07/04 16:00:29.552, True, 0.995, 0.141451
2023/07/04 16:00:30.048, True, 1.011, 0.140002
2023/07/04 16:00:30.552, True, 0.995, 0.140078
2023/07/04 16:00:31.056, True, 0.995, 0.140764
2023/07/04 16:00:31.552, True, 1.011, 0.139239
2023/07/04 16:00:32.056, True, 0.995, 0.139315
2023/07/04 16:00:32.560, True, 0.995, 0.140917
2023/07/04 16:00:33.056, True, 1.012, 0.142214
2023/07/04 16:00:33.560, True, 0.994, 0.139467
2023/07/04 16:00:34.056, True, 1.011, 0.139162
2023/07/04 16:00:34.559, True, 0.996, 0.141756
2023/07/04 16:00:35.064, True, 0.994, 0.141604
2023/07/04 16:00:35.568, True, 0.994, 0.137179
2023/07/04 16:00:36.063, True, 1.011, 0.141527
2023/07/04 16:00:36.568, True, 0.995, 0.140307
2023/07/04 16:00:37.064, True, 0.674, 0.138399
2023/07/04 16:00:37.567, True, 1.328, 0.140154
2023/07/04 16:00:38.072, True, 0.994, 0.140307
2023/07/04 16:00:38.568, True, 1.011, 0.139391
2023/07/04 16:00:39.072, True, 0.996, 0.141527
2023/07/04 16:00:39.576, True, 0.993, 0.140612
2023/07/04 16:00:40.072, True, 1.011, 0.140993
2023/07/04 16:00:40.576, True, 0.995, 0.140536
2023/07/04 16:00:41.080, True, 0.995, 0.139925
2023/07/04 16:00:41.576, True, 1.011, 0.140688
2023/07/04 16:00:42.079, True, 0.995, 0.141756
2023/07/04 16:00:42.584, True, 1.326, 0.141146
2023/07/04 16:00:43.080, True, 1.011, 0.140688
2023/07/04 16:00:43.584, True, 0.995, 0.139391
2023/07/04 16:00:44.087, True, 0.995, 0.141527
2023/07/04 16:00:44.592, True, 0.995, 0.140841
2023/07/04 16:00:45.088, True, 1.010, 0.140612
2023/07/04 16:00:45.592, True, 0.995, 0.141604
2023/07/04 16:00:46.096, True, 0.995, 0.140841
2023/07/04 16:00:46.592, True, 1.011, 0.141680
2023/07/04 16:00:47.095, True, 0.663, 0.140383
2023/07/04 16:00:47.600, True, 0.995, 0.139086
2023/07/04 16:00:48.096, True, 1.011, 0.140688
2023/07/04 16:00:48.600, True, 0.995, 0.140002
2023/07/04 16:00:49.104, True, 0.995, 0.139773
2023/07/04 16:00:49.600, True, 1.011, 0.138628
2023/07/04 16:00:50.104, True, 0.995, 0.143130
2023/07/04 16:00:50.600, True, 1.011, 0.144121
2023/07/04 16:00:51.104, True, 1.326, 0.140154
2023/07/04 16:00:51.607, True, 0.995, 0.141299
2023/07/04 16:00:52.112, True, 0.996, 0.139849
2023/07/04 16:00:52.607, True, 1.010, 0.139086
2023/07/04 16:00:53.111, True, 0.663, 0.142672
2023/07/04 16:00:53.616, True, 0.996, 0.139467
2023/07/04 16:00:54.112, True, 1.011, 0.141833
2023/07/04 16:00:54.616, True, 0.994, 0.141985
2023/07/04 16:00:55.119, True, 0.996, 0.139925
2023/07/04 16:00:55.615, True, 1.011, 0.140383
2023/07/04 16:00:56.120, True, 0.994, 0.141527
2023/07/04 16:00:56.623, True, 0.996, 0.145266
2023/07/04 16:00:57.120, True, 1.011, 0.140078
2023/07/04 16:00:57.624, True, 0.993, 0.139773
2023/07/04 16:00:58.128, True, 0.995, 0.141299
2023/07/04 16:00:58.631, True, 0.996, 0.143282
2023/07/04 16:00:59.128, True, 1.011, 0.140078
2023/07/04 16:00:59.632, True, 0.993, 0.140917
2023/07/04 16:01:00.135, True, 0.995, 0.139239
2023/07/04 16:01:00.632, True, 1.013, 0.144198
2023/07/04 16:01:01.136, True, 0.993, 0.141146
2023/07/04 16:01:01.640, True, 0.995, 0.140154
2023/07/04 16:01:02.135, True, 1.010, 0.142519
2023/07/04 16:01:02.640, True, 0.995, 0.141680
2023/07/04 16:01:03.144, True, 0.995, 0.141527
2023/07/04 16:01:03.640, True, 1.011, 0.142977
2023/07/04 16:01:04.144, True, 0.995, 0.144274
2023/07/04 16:01:04.648, True, 0.995, 0.142824
2023/07/04 16:01:05.144, True, 1.013, 0.141756
2023/07/04 16:01:05.648, True, 0.995, 0.142596
2023/07/04 16:01:06.151, True, 0.993, 0.142748
2023/07/04 16:01:06.656, True, 0.995, 0.143511
2023/07/04 16:01:07.151, True, 1.011, 0.143053
2023/07/04 16:01:07.656, True, 0.995, 0.143130
2023/07/04 16:01:08.152, True, 1.011, 0.144732
2023/07/04 16:01:08.656, True, 0.663, 0.143816
2023/07/04 16:01:09.159, True, 0.995, 0.144350
2023/07/04 16:01:09.664, True, 0.994, 0.143053
2023/07/04 16:01:10.159, True, 1.011, 0.144198
2023/07/04 16:01:10.664, True, 0.995, 0.144427
2023/07/04 16:01:11.168, True, 0.995, 0.146639
2023/07/04 16:01:11.664, True, 1.011, 0.146410
2023/07/04 16:01:12.168, True, 0.995, 0.143511
2023/07/04 16:01:12.672, True, 0.995, 0.143053
2023/07/04 16:01:13.168, True, 1.011, 0.145800
2023/07/04 16:01:13.672, True, 0.994, 0.143359
2023/07/04 16:01:14.176, True, 0.995, 0.146715
2023/07/04 16:01:14.680, True, 0.995, 0.145342
2023/07/04 16:01:15.176, True, 1.013, 0.146029
2023/07/04 16:01:15.680, True, 0.662, 0.144503
2023/07/04 16:01:16.184, True, 0.995, 0.147173
2023/07/04 16:01:16.680, True, 1.011, 0.145495
2023/07/04 16:01:17.184, True, 0.995, 0.145953
2023/07/04 16:01:17.687, True, 0.995, 0.148852
2023/07/04 16:01:18.184, True, 1.011, 0.145800
2023/07/04 16:01:18.688, True, 0.995, 0.146563
2023/07/04 16:01:19.192, True, 0.995, 0.145876
2023/07/04 16:01:19.687, True, 1.011, 0.146181
2023/07/04 16:01:20.192, True, 0.995, 0.146639
2023/07/04 16:01:20.688, True, 1.010, 0.145800
2023/07/04 16:01:21.192, True, 0.996, 0.146410
2023/07/04 16:01:21.696, True, 0.994, 0.147173
2023/07/04 16:01:22.200, True, 0.995, 0.148318
2023/07/04 16:01:22.696, True, 0.674, 0.146410
2023/07/04 16:01:23.200, True, 0.995, 0.148928
2023/07/04 16:01:23.696, True, 1.011, 0.148089
2023/07/04 16:01:24.200, True, 0.995, 0.147173
2023/07/04 16:01:24.704, True, 0.995, 0.147097
2023/07/04 16:01:25.200, True, 1.011, 0.146792
2023/07/04 16:01:25.704, True, 0.995, 0.146105
2023/07/04 16:01:26.207, True, 0.995, 0.146715
2023/07/04 16:01:26.712, True, 0.995, 0.146487
2023/07/04 16:01:27.208, True, 1.011, 0.147860
2023/07/04 16:01:27.712, True, 0.995, 0.146258
2023/07/04 16:01:28.208, True, 1.011, 0.148013
2023/07/04 16:01:28.712, True, 0.995, 0.147021
2023/07/04 16:01:29.216, True, 0.994, 0.145876
2023/07/04 16:01:29.712, True, 0.674, 0.146334
2023/07/04 16:01:30.216, True, 0.994, 0.145876
2023/07/04 16:01:30.720, True, 0.995, 0.146715
2023/07/04 16:01:31.216, True, 1.011, 0.146563
2023/07/04 16:01:31.720, True, 0.995, 0.146105
2023/07/04 16:01:32.224, True, 0.995, 0.146181
2023/07/04 16:01:32.720, True, 1.011, 0.146715
2023/07/04 16:01:33.224, True, 0.995, 0.148089
2023/07/04 16:01:33.728, True, 0.995, 0.145266
2023/07/04 16:01:34.224, True, 0.674, 0.148165
2023/07/04 16:01:34.728, True, 0.995, 0.145876
2023/07/04 16:01:35.232, True, 0.995, 0.147860
2023/07/04 16:01:35.728, True, 1.011, 0.147936
2023/07/04 16:01:36.232, True, 0.995, 0.148928
2023/07/04 16:01:36.736, True, 0.995, 0.146487
2023/07/04 16:01:37.232, True, 1.011, 0.147707
2023/07/04 16:01:37.736, True, 0.995, 0.147250
2023/07/04 16:01:38.240, True, 0.995, 0.146868
2023/07/04 16:01:38.735, True, 0.674, 0.147555
2023/07/04 16:01:39.239, True, 0.995, 0.148318
2023/07/04 16:01:39.736, True, 1.011, 0.149920
2023/07/04 16:01:40.240, True, 0.995, 0.148852
2023/07/04 16:01:40.744, True, 0.996, 0.147478
2023/07/04 16:01:41.240, True, 1.010, 0.147173
2023/07/04 16:01:41.744, True, 0.995, 0.146944
2023/07/04 16:01:42.248, True, 0.663, 0.150683
2023/07/04 16:01:42.744, True, 1.011, 0.146029
2023/07/04 16:01:43.248, True, 0.995, 0.147250
2023/07/04 16:01:43.752, True, 0.996, 0.147478
2023/07/04 16:01:44.248, True, 1.010, 0.147860
2023/07/04 16:01:44.752, True, 0.996, 0.148089
2023/07/04 16:01:45.256, True, 0.994, 0.148089
2023/07/04 16:01:45.752, True, 1.012, 0.148013
2023/07/04 16:01:46.256, True, 0.994, 0.146868
2023/07/04 16:01:46.760, True, 0.995, 0.148470
2023/07/04 16:01:47.256, True, 1.011, 0.148928
2023/07/04 16:01:47.760, True, 0.995, 0.147784
2023/07/04 16:01:48.264, True, 0.995, 0.148013
2023/07/04 16:01:48.760, True, 1.011, 0.148394
2023/07/04 16:01:49.263, True, 0.995, 0.149081
2023/07/04 16:01:49.768, True, 0.663, 0.148623
2023/07/04 16:01:50.263, True, 1.012, 0.149767
2023/07/04 16:01:50.768, True, 0.994, 0.148165
2023/07/04 16:01:51.272, True, 0.995, 0.148394
2023/07/04 16:01:51.776, True, 0.995, 0.148699
2023/07/04 16:01:52.272, True, 1.011, 0.148089
2023/07/04 16:01:52.776, True, 0.995, 0.148394
2023/07/04 16:01:53.280, True, 0.994, 0.147478
2023/07/04 16:01:53.776, True, 0.674, 0.150378
2023/07/04 16:01:54.280, True, 0.996, 0.150149
2023/07/04 16:01:54.784, True, 0.994, 0.146944
2023/07/04 16:01:55.280, True, 1.011, 0.146258
2023/07/04 16:01:55.783, True, 0.995, 0.147250
2023/07/04 16:01:56.288, True, 0.995, 0.147478
2023/07/04 16:01:56.792, True, 0.995, 0.148852
2023/07/04 16:01:57.296, True, 0.996, 0.150149
2023/07/04 16:01:57.792, True, 1.011, 0.148318
2023/07/04 16:01:58.296, True, 0.993, 0.147097
2023/07/04 16:01:58.792, True, 1.011, 0.147326
2023/07/04 16:01:59.296, True, 0.995, 0.148013
2023/07/04 16:01:59.799, True, 0.995, 0.149310
2023/07/04 16:02:00.296, True, 1.011, 0.146944
2023/07/04 16:02:00.800, True, 0.995, 0.149386
2023/07/04 16:02:01.304, True, 0.995, 0.147250
2023/07/04 16:02:01.800, True, 1.011, 0.148470
2023/07/04 16:02:02.304, True, 0.996, 0.147173
2023/07/04 16:02:02.808, True, 0.993, 0.147631
2023/07/04 16:02:03.304, True, 0.674, 0.149844
2023/07/04 16:02:03.807, True, 0.995, 0.147860
2023/07/04 16:02:04.312, True, 0.995, 0.146487
2023/07/04 16:02:04.808, True, 1.011, 0.148775
2023/07/04 16:02:05.312, True, 0.996, 0.148623
2023/07/04 16:02:05.808, True, 1.009, 0.150072
2023/07/04 16:02:06.312, True, 0.996, 0.149767
2023/07/04 16:02:06.816, True, 0.994, 0.147173
2023/07/04 16:02:07.312, True, 1.011, 0.148928
2023/07/04 16:02:07.815, True, 0.994, 0.149233
2023/07/04 16:02:08.320, True, 0.663, 0.147631
2023/07/04 16:02:08.816, True, 1.011, 0.149767
2023/07/04 16:02:09.320, True, 0.995, 0.147402
2023/07/04 16:02:09.824, True, 0.995, 0.147860
2023/07/04 16:02:10.328, True, 0.995, 0.147478
2023/07/04 16:02:10.824, True, 1.011, 0.148013
2023/07/04 16:02:11.328, True, 0.663, 0.148165
2023/07/04 16:02:11.831, True, 0.996, 0.148852
2023/07/04 16:02:12.328, True, 1.010, 0.149310
2023/07/04 16:02:12.832, True, 0.996, 0.147860
2023/07/04 16:02:13.336, True, 0.993, 0.150759
2023/07/04 16:02:13.832, True, 1.011, 0.146868
2023/07/04 16:02:14.336, True, 0.663, 0.149386
2023/07/04 16:02:14.840, True, 0.995, 0.147860
2023/07/04 16:02:15.344, True, 0.994, 0.149386
2023/07/04 16:02:15.839, True, 1.011, 0.150225
2023/07/04 16:02:16.344, True, 0.994, 0.148165
2023/07/04 16:02:16.847, True, 0.996, 0.147555
2023/07/04 16:02:17.344, True, 1.009, 0.145800
2023/07/04 16:02:17.847, True, 0.995, 0.147250
2023/07/04 16:02:18.351, True, 0.995, 0.148470
2023/07/04 16:02:18.848, True, 1.011, 0.147021
2023/07/04 16:02:19.351, True, 0.994, 0.147860
2023/07/04 16:02:19.856, True, 0.995, 0.150301
2023/07/04 16:02:20.351, True, 0.674, 0.147021
2023/07/04 16:02:20.856, True, 0.995, 0.145876
2023/07/04 16:02:21.359, True, 0.996, 0.147478
2023/07/04 16:02:21.856, True, 1.011, 0.147936
2023/07/04 16:02:22.360, True, 0.994, 0.148547
2023/07/04 16:02:22.864, True, 0.997, 0.150072
2023/07/04 16:02:23.360, True, 0.673, 0.147326
2023/07/04 16:02:23.864, True, 0.994, 0.147707
2023/07/04 16:02:24.367, True, 1.328, 0.148699
2023/07/04 16:02:24.864, True, 1.011, 0.149310
2023/07/04 16:02:25.368, True, 0.993, 0.146563
2023/07/04 16:02:25.871, True, 0.995, 0.147555
2023/07/04 16:02:26.375, True, 0.994, 0.148547
2023/07/04 16:02:26.880, True, 0.663, 0.148852
2023/07/04 16:02:27.375, True, 1.011, 0.148241
2023/07/04 16:02:27.880, True, 0.995, 0.146410
2023/07/04 16:02:28.384, True, 0.996, 0.150454
2023/07/04 16:02:28.888, True, 0.993, 0.148852
2023/07/04 16:02:29.384, True, 1.011, 0.148699
2023/07/04 16:02:29.888, True, 0.995, 0.148470
2023/07/04 16:02:30.392, True, 0.994, 0.147402
2023/07/04 16:02:30.888, True, 1.011, 0.147631
2023/07/04 16:02:31.392, True, 0.995, 0.148394
2023/07/04 16:02:31.896, True, 0.996, 0.147555
2023/07/04 16:02:32.392, True, 1.011, 0.146639
2023/07/04 16:02:32.896, True, 0.994, 0.146563
2023/07/04 16:02:33.400, True, 0.995, 0.148089
2023/07/04 16:02:33.896, True, 1.012, 0.150072
2023/07/04 16:02:34.400, True, 0.662, 0.150835
2023/07/04 16:02:34.904, True, 0.995, 0.147326
2023/07/04 16:02:35.400, True, 1.011, 0.148699
2023/07/04 16:02:35.904, True, 0.995, 0.148318
2023/07/04 16:02:36.408, True, 0.997, 0.146410
2023/07/04 16:02:36.903, True, 1.010, 0.147707
2023/07/04 16:02:37.408, True, 0.994, 0.147631
2023/07/04 16:02:37.904, True, 1.011, 0.147784
2023/07/04 16:02:38.408, True, 0.664, 0.148470
2023/07/04 16:02:38.912, True, 0.993, 0.147784
2023/07/04 16:02:39.416, True, 0.996, 0.145953
2023/07/04 16:02:39.911, True, 1.009, 0.147402
2023/07/04 16:02:40.415, True, 0.995, 0.147936
2023/07/04 16:02:40.920, True, 0.996, 0.147707
2023/07/04 16:02:41.416, True, 1.009, 0.148241
2023/07/04 16:02:41.920, True, 0.995, 0.147173
2023/07/04 16:02:42.424, True, 0.995, 0.148623
2023/07/04 16:02:42.919, True, 1.013, 0.147936
2023/07/04 16:02:43.424, True, 0.993, 0.149767
2023/07/04 16:02:43.928, True, 0.995, 0.147936
2023/07/04 16:02:44.424, True, 1.011, 0.146715
2023/07/04 16:02:44.928, True, 0.995, 0.146639
2023/07/04 16:02:45.432, True, 0.995, 0.147021
2023/07/04 16:02:45.928, True, 1.011, 0.148089
2023/07/04 16:02:46.432, True, 0.995, 0.147936
2023/07/04 16:02:46.936, True, 0.663, 0.146258
2023/07/04 16:02:47.432, True, 1.013, 0.147021
2023/07/04 16:02:47.936, True, 0.993, 0.148394
2023/07/04 16:02:48.432, True, 1.011, 0.146334
2023/07/04 16:02:48.936, True, 0.995, 0.145800
2023/07/04 16:02:49.440, True, 0.995, 0.149310
2023/07/04 16:02:49.936, True, 1.011, 0.148241
2023/07/04 16:02:50.440, True, 0.663, 0.147478
2023/07/04 16:02:50.944, True, 0.995, 0.149767
2023/07/04 16:02:51.440, True, 1.011, 0.146944
2023/07/04 16:02:51.943, True, 0.995, 0.148318
2023/07/04 16:02:52.448, True, 0.995, 0.150454
2023/07/04 16:02:52.944, True, 1.011, 0.146410
2023/07/04 16:02:53.448, True, 0.995, 0.148775
2023/07/04 16:02:53.952, True, 0.995, 0.147555
2023/07/04 16:02:54.448, True, 1.011, 0.147097
2023/07/04 16:02:54.952, True, 0.995, 0.147250
2023/07/04 16:02:55.456, True, 0.995, 0.148547
2023/07/04 16:02:55.952, True, 1.011, 0.148852
2023/07/04 16:02:56.455, True, 0.663, 0.145800
2023/07/04 16:02:56.960, True, 0.995, 0.150225
2023/07/04 16:02:57.464, True, 0.995, 0.145342
2023/07/04 16:02:57.960, True, 1.011, 0.148775
2023/07/04 16:02:58.464, True, 0.994, 0.148394
2023/07/04 16:02:58.968, True, 0.995, 0.148013
2023/07/04 16:02:59.464, True, 1.011, 0.147326
2023/07/04 16:02:59.968, True, 0.663, 0.148089
2023/07/04 16:03:00.472, True, 0.995, 0.145113
2023/07/04 16:03:00.968, True, 1.010, 0.148013
2023/07/04 16:03:01.472, True, 0.995, 0.148470
2023/07/04 16:03:01.976, True, 0.995, 0.144884
2023/07/04 16:03:02.472, True, 1.011, 0.145495
2023/07/04 16:03:02.975, True, 0.995, 0.148623
2023/07/04 16:03:03.480, True, 0.995, 0.146563
2023/07/04 16:03:03.976, True, 1.011, 0.146181
2023/07/04 16:03:04.480, True, 0.995, 0.148013
2023/07/04 16:03:04.984, True, 0.995, 0.147402
2023/07/04 16:03:05.479, True, 1.011, 0.148394
2023/07/04 16:03:05.984, True, 0.995, 0.147555
2023/07/04 16:03:06.480, True, 0.674, 0.148013
2023/07/04 16:03:06.984, True, 0.995, 0.146029
2023/07/04 16:03:07.488, True, 0.995, 0.146258
2023/07/04 16:03:07.991, True, 0.995, 0.146639
2023/07/04 16:03:08.488, True, 1.011, 0.147021
2023/07/04 16:03:08.992, True, 0.995, 0.147326
2023/07/04 16:03:09.496, True, 0.995, 0.146639
2023/07/04 16:03:09.991, True, 1.011, 0.147936
2023/07/04 16:03:10.496, True, 0.995, 0.145495
2023/07/04 16:03:10.000, True, 0.995, 0.145495
2023/07/04 16:03:11.504, True, 0.995, 0.147478
2023/07/04 16:03:11.000, True, 0.674, 0.148699
2023/07/04 16:03:12.504, True, 0.995, 0.149157
2023/07/04 16:03:13.008, True, 0.995, 0.148699
2023/07/04 16:03:13.504, True, 1.011, 0.148852
2023/07/04 16:03:14.008, True, 0.995, 0.147555
2023/07/04 16:03:14.511, True, 0.995, 0.145571
2023/07/04 16:03:15.008, True, 1.011, 0.146639
2023/07/04 16:03:15.512, True, 0.663, 0.147173
2023/07/04 16:03:16.016, True, 0.995, 0.148623
2023/07/04 16:03:16.512, True, 1.011, 0.145724
2023/07/04 16:03:17.016, True, 0.995, 0.147555
2023/07/04 16:03:17.520, True, 0.996, 0.146105
2023/07/04 16:03:18.016, True, 0.673, 0.148699
2023/07/04 16:03:18.520, True, 0.995, 0.148089
2023/07/04 16:03:19.024, True, 0.994, 0.148699
2023/07/04 16:03:19.520, True, 1.013, 0.146944
2023/07/04 16:03:20.024, True, 0.993, 0.147707
2023/07/04 16:03:20.528, True, 0.995, 0.144579
2023/07/04 16:03:21.024, True, 1.011, 0.148241
2023/07/04 16:03:21.528, True, 0.995, 0.148089
2023/07/04 16:03:22.032, True, 0.995, 0.146868
2023/07/04 16:03:22.528, True, 0.674, 0.146487
2023/07/04 16:03:23.032, True, 0.995, 0.148547
2023/07/04 16:03:23.528, True, 1.011, 0.144503
2023/07/04 16:03:24.032, True, 0.994, 0.148165
2023/07/04 16:03:24.536, True, 0.995, 0.145876
2023/07/04 16:03:25.032, True, 1.011, 0.146563
2023/07/04 16:03:25.536, True, 0.995, 0.146410
2023/07/04 16:03:26.040, True, 0.995, 0.145495
2023/07/04 16:03:26.544, True, 0.995, 0.148928
2023/07/04 16:03:27.040, True, 1.011, 0.148699
2023/07/04 16:03:27.544, True, 0.995, 0.147173
2023/07/04 16:03:28.047, True, 0.995, 0.147784
2023/07/04 16:03:28.544, True, 1.010, 0.145953
2023/07/04 16:03:29.048, True, 0.995, 0.146715
2023/07/04 16:03:29.543, True, 0.674, 0.147402
2023/07/04 16:03:30.048, True, 0.995, 0.146334
2023/07/04 16:03:30.552, True, 0.995, 0.146563
2023/07/04 16:03:31.048, True, 1.011, 0.146563
2023/07/04 16:03:31.552, True, 0.995, 0.146334
2023/07/04 16:03:32.056, True, 0.995, 0.146792
2023/07/04 16:03:32.552, True, 1.011, 0.146639
2023/07/04 16:03:33.056, True, 0.663, 0.144808
2023/07/04 16:03:33.552, True, 1.011, 0.146334
2023/07/04 16:03:34.055, True, 0.994, 0.145190
2023/07/04 16:03:34.560, True, 0.995, 0.146334
2023/07/04 16:03:35.056, True, 1.011, 0.144808
2023/07/04 16:03:35.560, True, 0.663, 0.147021
2023/07/04 16:03:36.064, True, 1.327, 0.148089
2023/07/04 16:03:36.560, True, 1.011, 0.149462
2023/07/04 16:03:37.064, True, 0.995, 0.148165
2023/07/04 16:03:37.568, True, 0.663, 0.145418
2023/07/04 16:03:38.064, True, 1.011, 0.146487
2023/07/04 16:03:38.567, True, 0.995, 0.146410
2023/07/04 16:03:39.071, True, 0.995, 0.147555
2023/07/04 16:03:39.568, True, 1.011, 0.146487
2023/07/04 16:03:40.072, True, 0.995, 0.147936
2023/07/04 16:03:40.575, True, 0.995, 0.145571
2023/07/04 16:03:41.072, True, 1.011, 0.146715
2023/07/04 16:03:41.576, True, 0.995, 0.146868
2023/07/04 16:03:42.080, True, 0.994, 0.145876
2023/07/04 16:03:42.576, True, 0.675, 0.147097
2023/07/04 16:03:43.080, True, 0.994, 0.146715
2023/07/04 16:03:43.584, True, 0.995, 0.145571
2023/07/04 16:03:44.079, True, 1.011, 0.146181
2023/07/04 16:03:44.584, True, 0.995, 0.149081
2023/07/04 16:03:45.087, True, 0.994, 0.145876
2023/07/04 16:03:45.583, True, 0.674, 0.147631
2023/07/04 16:03:46.088, True, 0.995, 0.148394
2023/07/04 16:03:46.592, True, 0.995, 0.145647
2023/07/04 16:03:47.087, True, 1.012, 0.146487
2023/07/04 16:03:47.592, True, 0.994, 0.145876
2023/07/04 16:03:48.096, True, 0.663, 0.148013
2023/07/04 16:03:48.591, True, 1.011, 0.145876
2023/07/04 16:03:49.095, True, 0.995, 0.144961
2023/07/04 16:03:49.600, True, 0.995, 0.146715
2023/07/04 16:03:50.096, True, 1.011, 0.145800
2023/07/04 16:03:50.600, True, 0.995, 0.145724
2023/07/04 16:03:51.103, True, 0.995, 0.143969
2023/07/04 16:03:51.608, True, 0.995, 0.146792
2023/07/04 16:03:52.104, True, 1.013, 0.145266
2023/07/04 16:03:52.608, True, 0.993, 0.148470
2023/07/04 16:03:53.112, True, 0.664, 0.145418
2023/07/04 16:03:53.607, True, 1.012, 0.147402
2023/07/04 16:03:54.112, True, 0.995, 0.148623
2023/07/04 16:03:54.616, True, 0.994, 0.148241
2023/07/04 16:03:55.112, True, 1.011, 0.145266
2023/07/04 16:03:55.616, True, 0.995, 0.146105
2023/07/04 16:03:56.120, True, 0.663, 0.146868
2023/07/04 16:03:56.616, True, 1.011, 0.145266
2023/07/04 16:03:57.120, True, 0.995, 0.146410
2023/07/04 16:03:57.624, True, 0.995, 0.147326
2023/07/04 16:03:58.120, True, 1.010, 0.145571
2023/07/04 16:03:58.624, True, 0.995, 0.147478
2023/07/04 16:03:59.128, True, 0.996, 0.146334
2023/07/04 16:03:59.632, True, 0.994, 0.148013
2023/07/04 16:04:00.128, True, 0.674, 0.148241
2023/07/04 16:04:00.632, True, 0.996, 0.146487
2023/07/04 16:04:01.136, True, 0.994, 0.147478
2023/07/04 16:04:01.632, True, 1.010, 0.146029
2023/07/04 16:04:02.136, True, 0.995, 0.146715
2023/07/04 16:04:02.640, True, 0.995, 0.147707
2023/07/04 16:04:03.136, True, 0.674, 0.143130
2023/07/04 16:04:03.640, True, 0.995, 0.147707
2023/07/04 16:04:04.144, True, 0.995, 0.148470
2023/07/04 16:04:04.640, True, 1.011, 0.145800
2023/07/04 16:04:05.144, True, 0.995, 0.145418
2023/07/04 16:04:05.648, True, 0.995, 0.145495
2023/07/04 16:04:06.144, True, 0.674, 0.145800
2023/07/04 16:04:06.648, True, 0.995, 0.146792
2023/07/04 16:04:07.152, True, 0.994, 0.144961
2023/07/04 16:04:07.648, True, 1.011, 0.147097
2023/07/04 16:04:08.152, True, 0.995, 0.146334
2023/07/04 16:04:08.656, True, 0.995, 0.148318
2023/07/04 16:04:09.160, True, 0.995, 0.143359
2023/07/04 16:04:09.656, True, 1.011, 0.149691
2023/07/04 16:04:10.159, True, 0.996, 0.145418
2023/07/04 16:04:10.664, True, 0.994, 0.145647
2023/07/04 16:04:11.160, True, 0.674, 0.146715
2023/07/04 16:04:11.664, True, 1.327, 0.148318
2023/07/04 16:04:12.168, True, 0.663, 0.146792
2023/07/04 16:04:12.664, True, 1.011, 0.144350